Weather History for Dalhart, TX

Change the Weather History Date:

Sunday, December 9, 2012

  Actual Average Record
Temperature  
Mean Temperature 32 °F 35 °F  
Max Temperature 45 °F 49 °F 75 °F (1993)
Min Temperature 18 °F 20 °F -7 °F (1978)
Degree Days  
Heating Degree Days 33 30  
Month to date heating degree days 169 262  
Since 1 July heating degree days 977 1257  
Cooling Degree Days 0 0  
Month to date cooling degree days 0 0  
Year to date cooling degree days 1648 1138  
Moisture  
Dew Point 15 °F    
Average Humidity 57    
Maximum Humidity 82    
Minimum Humidity 31    
Precipitation  
Precipitation T in 0.02 in 0.39 in (1960)
Month to date precipitation T 0.15  
Year to date precipitation 6.35 17.20  
Snow  
Snow T in 0.10 in 4.00 in (1960)
Month to date snowfall T 1.1  
Since 1 July snowfall T 3.0  
Snow Depth 0.00 in    
Sea Level Pressure  
Sea Level Pressure 30.05 in    
Wind  
Wind Speed 20 mph (North)    
Max Wind Speed 37 mph    
Max Gust Speed 46 mph    
Visibility 9 miles    
Events      
T = Trace of Precipitation, MM = Missing Value Source: NWS Daily Summary

Daily Weather History Graph

Daily Weather History Graph

Search for Another Location

Airport:

Trip Planner

Search our weather history database for the weather conditions in past years. The results will help you decide how hot, cold, wet, or windy it might be!

Date:

Astronomy

Dec. 09, 2012 Rise Set
Actual Time 7:49 AM CST 5:36 PM CST
Civil Twilight 7:21 AM CST 6:04 PM CST
Nautical Twilight 6:49 AM CST 6:36 PM CST
Astronomical Twilight 6:17 AM CST 7:07 PM CST
Moon 3:30 AM CST (12/9) 2:39 PM CST (12/9)
Length of Visible Light 10h 43m
Length of Day
9h 46m
Waning Crescent, 18% of the Moon is Illuminated
Dec 9
Waning Crescent
Dec 13
New
Dec 19
First Quarter
Dec 28
Full
Jan 4
Last Quarter

Hourly Weather History & Observations

Time (CST) Temp. Windchill Dew Point Humidity Pressure Visibility Wind Dir Wind Speed Gust Speed Precip Events Conditions
12:38 AM 35.6 °F 23.4 °F 30.2 °F 81% 29.81 in 4.0 mi North 25.3 mph 35.7 mph N/A   Haze
12:53 AM 37.0 °F 26.7 °F 32.0 °F 82% 29.80 in 5.0 mi North 19.6 mph 31.1 mph N/A   Haze
1:43 AM 37.4 °F 26.9 °F 32.0 °F 81% 29.84 in 6.0 mi North 20.7 mph 27.6 mph N/A   Haze
1:53 AM 37.9 °F 27.3 °F 30.0 °F 73% 29.82 in 7.0 mi North 21.9 mph 32.2 mph N/A   Overcast
2:53 AM 37.0 °F 24.1 °F 24.1 °F 59% 29.84 in 6.0 mi NNE 32.2 mph 46.0 mph N/A   Haze
3:25 AM 35.6 °F 22.5 °F 19.4 °F 52% 29.90 in 10.0 mi NNE 29.9 mph 35.7 mph N/A   Overcast
3:53 AM 34.0 °F 20.5 °F 18.0 °F 52% 29.85 in 10.0 mi NNE 28.8 mph 35.7 mph N/A   Mostly Cloudy
4:53 AM 30.9 °F 18.4 °F 16.0 °F 54% 29.90 in 10.0 mi North 20.7 mph - N/A   Clear
5:53 AM 28.9 °F 18.2 °F 15.1 °F 56% 29.94 in 10.0 mi North 13.8 mph - N/A   Clear
6:53 AM 28.0 °F 18.6 °F 15.1 °F 58% 30.00 in 10.0 mi North 10.4 mph - N/A   Clear
7:53 AM 27.0 °F 16.7 °F 14.0 °F 58% 30.01 in 10.0 mi North 11.5 mph - N/A   Scattered Clouds
8:53 AM 30.9 °F 17.8 °F 12.9 °F 47% 30.04 in 10.0 mi North 23.0 mph 29.9 mph N/A   Overcast
9:53 AM 32.0 °F 18.6 °F 12.9 °F 45% 30.06 in 10.0 mi NNE 25.3 mph 32.2 mph N/A   Overcast
10:53 AM 32.0 °F 19.2 °F 12.0 °F 44% 30.10 in 10.0 mi NNE 23.0 mph - N/A   Overcast
11:53 AM 32.0 °F 18.4 °F 12.9 °F 45% 30.08 in 10.0 mi North 26.5 mph 32.2 mph N/A   Mostly Cloudy
12:53 PM 30.9 °F 17.2 °F 14.0 °F 50% 30.10 in 10.0 mi North 25.3 mph - N/A   Overcast
1:53 PM 28.9 °F 15.8 °F 15.1 °F 56% 30.10 in 10.0 mi North 20.7 mph 28.8 mph N/A   Overcast
2:53 PM 28.9 °F 15.1 °F 12.9 °F 51% 30.09 in 10.0 mi North 23.0 mph 31.1 mph N/A   Overcast
3:53 PM 28.9 °F 14.3 °F 16.0 °F 58% 30.10 in 10.0 mi North 26.5 mph 32.2 mph N/A   Overcast
4:53 PM 28.9 °F 14.0 °F 6.1 °F 38% 30.14 in 10.0 mi North 27.6 mph - N/A   Overcast
5:53 PM 28.0 °F 14.3 °F 7.0 °F 41% 30.19 in 10.0 mi North 21.9 mph 33.4 mph N/A   Overcast
6:53 PM 26.1 °F 10.7 °F 9.0 °F 49% 30.25 in 10.0 mi North 25.3 mph 32.2 mph 0.00 in   Overcast
7:53 PM 26.1 °F 12.3 °F 6.1 °F 43% 30.24 in 10.0 mi North 19.6 mph 29.9 mph N/A   Overcast
8:53 PM 25.0 °F 12.2 °F 5.0 °F 43% 30.26 in 10.0 mi North 16.1 mph - N/A   Mostly Cloudy
9:53 PM 21.9 °F 9.8 °F 3.0 °F 44% 30.28 in 10.0 mi North 12.7 mph - N/A   Clear
10:53 PM 19.9 °F 10.1 °F 3.0 °F 48% 30.30 in 10.0 mi North 8.1 mph - N/A   Clear
11:53 PM 18.0 °F 8.7 °F 1.9 °F 50% 30.30 in 10.0 mi NNW 6.9 mph - N/A   Clear